• In Netherlands
  • List of Countries
  • For 7 days
  • Water Temperature
  • Satellite Maps
  • Weather Map
  • Weather Widgets
  • user-avatar
    Login

    Hourly Weather Burgas

    Today, 23 September, Saturday

    Time Temperature Precipitation Wind Pressure Humidity
    00:00 +14°C° 0 mm 5 mps 761 mmHg 65%
    01:00 +13°C° 0 mm 4 mps 761 mmHg 68%
    02:00 +13°C° 0 mm 4 mps 761 mmHg 70%
    03:00 +12°C° 0 mm 4 mps 761 mmHg 72%
    04:00 +12°C° 0 mm 4 mps 761 mmHg 73%
    05:00 +12°C° 0 mm 4 mps 761 mmHg 75%
    06:00 +13°C° 0 mm 4 mps 762 mmHg 70%
    07:00 +15°C° 0 mm 4 mps 762 mmHg 65%
    08:00 +17°C° 0 mm 4 mps 762 mmHg 60%
    09:00 +19°C° 0 mm 4 mps 762 mmHg 53%
    10:00 +21°C° 0 mm 4 mps 762 mmHg 47%
    11:00 +22°C° 0 mm 4 mps 762 mmHg 41%
    12:00 +24°C° 0 mm 3 mps 762 mmHg 38%
    13:00 +25°C° 0 mm 3 mps 762 mmHg 36%
    14:00 +25°C° 0 mm 3 mps 762 mmHg 34%
    15:00 +25°C° 0 mm 3 mps 762 mmHg 35%
    16:00 +24°C° 0 mm 2 mps 762 mmHg 36%
    17:00 +24°C° 0 mm 2 mps 762 mmHg 37%
    18:00 +21°C° 0 mm 2 mps 762 mmHg 42%
    19:00 +20°C° 0 mm 2 mps 762 mmHg 46%
    20:00 +18°C° 0 mm 2 mps 763 mmHg 50%
    21:00 +17°C° 0 mm 2 mps 763 mmHg 51%
    22:00 +17°C° 0 mm 2 mps 763 mmHg 53%
    23:00 +16°C° 0 mm 1 mps 763 mmHg 54%

    Tomorrow, 24 September, Sunday

    Time Temperature Precipitation Wind Pressure Humidity
    00:00 +16°C° 0 mm 1 mps 763 mmHg 55%
    01:00 +16°C° 0 mm 1 mps 763 mmHg 55%
    02:00 +15°C° 0 mm 1 mps 763 mmHg 55%
    03:00 +15°C° 0 mm 1 mps 763 mmHg 57%
    04:00 +15°C° 0 mm 1 mps 763 mmHg 58%
    05:00 +15°C° 0 mm 1 mps 763 mmHg 59%
    06:00 +16°C° 0 mm 1 mps 763 mmHg 55%
    07:00 +19°C° 0 mm 1 mps 763 mmHg 50%
    08:00 +20°C° 0 mm 1 mps 763 mmHg 46%
    09:00 +23°C° 0 mm 1 mps 763 mmHg 40%
    10:00 +25°C° 0 mm 1 mps 763 mmHg 35%
    11:00 +27°C° 0 mm 1 mps 763 mmHg 29%
    12:00 +28°C° 0 mm 1 mps 763 mmHg 28%
    13:00 +28°C° 0 mm 2 mps 763 mmHg 27%
    14:00 +29°C° 0 mm 2 mps 762 mmHg 26%
    15:00 +28°C° 0 mm 3 mps 762 mmHg 28%
    16:00 +27°C° 0 mm 3 mps 762 mmHg 29%
    17:00 +27°C° 0 mm 3 mps 762 mmHg 31%
    18:00 +25°C° 0 mm 3 mps 763 mmHg 39%
    19:00 +21°C° 0 mm 3 mps 763 mmHg 48%
    20:00 +19°C° 0 mm 3 mps 763 mmHg 56%
    21:00 +19°C° 0 mm 3 mps 763 mmHg 60%
    22:00 +18°C° 0 mm 2 mps 763 mmHg 64%
    23:00 +18°C° 0 mm 2 mps 763 mmHg 68%

    Day after tomorrow, 25 September, Monday

    Time Temperature Precipitation Wind Pressure Humidity
    00:00 +17°C° 0 mm 2 mps 763 mmHg 71%
    01:00 +18°C° 0 mm 1 mps 763 mmHg 74%
    02:00 +18°C° 0 mm 1 mps 763 mmHg 77%
    03:00 +18°C° 0 mm 1 mps 763 mmHg 79%
    04:00 +16°C° 0 mm 2 mps 763 mmHg 81%
    05:00 +16°C° 0 mm 2 mps 763 mmHg 82%
    06:00 +18°C° 0 mm 3 mps 763 mmHg 77%
    07:00 +19°C° 0 mm 3 mps 763 mmHg 71%
    08:00 +21°C° 0 mm 4 mps 763 mmHg 66%
    09:00 +22°C° 0 mm 5 mps 763 mmHg 59%
    10:00 +25°C° 0 mm 5 mps 763 mmHg 52%
    11:00 +27°C° 0 mm 6 mps 763 mmHg 45%
    12:00 +27°C° 0 mm 6 mps 762 mmHg 45%
    13:00 +27°C° 0 mm 7 mps 762 mmHg 45%
    14:00 +27°C° 0 mm 7 mps 762 mmHg 44%
    15:00 +26°C° 0 mm 7 mps 762 mmHg 47%
    16:00 +24°C° 0 mm 7 mps 762 mmHg 50%
    17:00 +23°C° 0 mm 7 mps 762 mmHg 53%
    18:00 +22°C° 0 mm 6 mps 762 mmHg 61%
    19:00 +21°C° 0 mm 6 mps 762 mmHg 69%
    20:00 +19°C° 0 mm 5 mps 762 mmHg 77%
    21:00 +19°C° 0 mm 5 mps 762 mmHg 81%
    22:00 +17°C° 0 mm 5 mps 762 mmHg 85%
    23:00 +18°C° 0 mm 4 mps 762 mmHg 88%

    26 September, Tuesday

    Time Temperature Precipitation Wind Pressure Humidity
    00:00 +18°C° 0 mm 4 mps 761 mmHg 90%
    01:00 +17°C° 0 mm 4 mps 761 mmHg 91%
    02:00 +17°C° 0 mm 4 mps 761 mmHg 93%
    03:00 +17°C° 0 mm 4 mps 761 mmHg 93%
    04:00 +17°C° 0 mm 4 mps 761 mmHg 94%
    05:00 +15°C° 0 mm 4 mps 760 mmHg 94%
    06:00 +17°C° 0 mm 4 mps 760 mmHg 89%
    07:00 +18°C° 0 mm 4 mps 760 mmHg 84%
    08:00 +20°C° 0 mm 4 mps 760 mmHg 80%
    09:00 +22°C° 0.1 mm 4 mps 761 mmHg 71%
    10:00 +25°C° 0.1 mm 5 mps 761 mmHg 62%
    11:00 +27°C° 0.1 mm 5 mps 761 mmHg 54%
    12:00 +26°C° 0.7 mm 5 mps 760 mmHg 58%
    13:00 +26°C° 0.7 mm 5 mps 760 mmHg 61%
    14:00 +25°C° 0.7 mm 5 mps 760 mmHg 65%
    15:00 +23°C° 1.3 mm 6 mps 760 mmHg 70%
    16:00 +22°C° 1.3 mm 6 mps 760 mmHg 74%
    17:00 +21°C° 1.3 mm 6 mps 760 mmHg 79%
    18:00 +21°C° 0.9 mm 6 mps 761 mmHg 81%
    19:00 +20°C° 0.9 mm 6 mps 761 mmHg 84%
    20:00 +19°C° 0.9 mm 6 mps 761 mmHg 86%
    21:00 +19°C° 0.1 mm 5 mps 761 mmHg 86%
    22:00 +19°C° 0.1 mm 5 mps 761 mmHg 86%
    23:00 +18°C° 0.1 mm 4 mps 762 mmHg 87%

    27 September, Wednesday

    Time Temperature Precipitation Wind Pressure Humidity
    00:00 +18°C° 0 mm 4 mps 762 mmHg 87%
    01:00 +17°C° 0 mm 4 mps 762 mmHg 86%
    02:00 +17°C° 0 mm 4 mps 762 mmHg 86%
    03:00 +17°C° 0.1 mm 4 mps 762 mmHg 86%
    04:00 +15°C° 0.1 mm 4 mps 762 mmHg 85%
    05:00 +15°C° 0.1 mm 4 mps 762 mmHg 84%
    06:00 +16°C° 0.2 mm 5 mps 762 mmHg 80%
    07:00 +16°C° 0.2 mm 5 mps 762 mmHg 76%
    08:00 +17°C° 0.2 mm 5 mps 762 mmHg 72%
    09:00 +19°C° 0.3 mm 5 mps 763 mmHg 68%
    10:00 +21°C° 0.3 mm 5 mps 763 mmHg 64%
    11:00 +23°C° 0.3 mm 5 mps 763 mmHg 60%
    12:00 +23°C° 0.6 mm 6 mps 763 mmHg 60%
    13:00 +23°C° 0.6 mm 6 mps 763 mmHg 60%
    14:00 +23°C° 0.6 mm 6 mps 763 mmHg 60%
    15:00 +23°C° 0.2 mm 6 mps 763 mmHg 62%
    16:00 +22°C° 0.2 mm 7 mps 763 mmHg 64%
    17:00 +21°C° 0.2 mm 7 mps 763 mmHg 67%
    18:00 +20°C° 0 mm 6 mps 764 mmHg 70%
    19:00 +19°C° 0 mm 6 mps 764 mmHg 73%
    20:00 +17°C° 0 mm 6 mps 764 mmHg 76%
    21:00 +17°C° 0 mm 6 mps 764 mmHg 77%
    22:00 +17°C° 0 mm 5 mps 764 mmHg 78%
    23:00 +16°C° 0 mm 5 mps 764 mmHg 79%

    28 September, Thursday

    Time Temperature Precipitation Wind Pressure Humidity
    00:00 +16°C° 0 mm 5 mps 764 mmHg 80%
    01:00 +16°C° 0 mm 5 mps 764 mmHg 80%
    02:00 +15°C° 0 mm 6 mps 764 mmHg 80%
    03:00 +15°C° 0 mm 6 mps 765 mmHg 80%
    04:00 +15°C° 0 mm 6 mps 765 mmHg 80%
    05:00 +14°C° 0 mm 6 mps 765 mmHg 80%
    06:00 +15°C° 0 mm 6 mps 765 mmHg 76%
    07:00 +16°C° 0 mm 7 mps 765 mmHg 73%
    08:00 +16°C° 0 mm 7 mps 765 mmHg 70%
    09:00 +17°C° 0.1 mm 7 mps 765 mmHg 68%
    10:00 +20°C° 0.1 mm 7 mps 765 mmHg 65%
    11:00 +21°C° 0.1 mm 8 mps 765 mmHg 63%
    12:00 +20°C° 0.2 mm 8 mps 765 mmHg 63%
    13:00 +20°C° 0.2 mm 8 mps 765 mmHg 64%
    14:00 +20°C° 0.2 mm 8 mps 765 mmHg 64%
    15:00 +20°C° 0.1 mm 8 mps 765 mmHg 64%
    16:00 +20°C° 0.1 mm 8 mps 765 mmHg 64%
    17:00 +18°C° 0.1 mm 8 mps 765 mmHg 64%
    18:00 +17°C° 0.1 mm 7 mps 765 mmHg 68%
    19:00 +16°C° 0.1 mm 7 mps 765 mmHg 72%
    20:00 +15°C° 0.1 mm 7 mps 765 mmHg 77%
    21:00 +15°C° 0 mm 7 mps 765 mmHg 78%
    22:00 +14°C° 0 mm 7 mps 765 mmHg 79%
    23:00 +14°C° 0 mm 6 mps 765 mmHg 80%
    Show more